QPF
0.04 0.05 0.05 0.07 0.07 0.06 0.07 0.07 0.06 0.05 0.06 0.10 0.13 0.14 0.12 0.10 0.10 0.08 0.06 0.05 0.05 0.05 0.05 0.05 0.04 0.03 0.02 0.02 0.02 0.02 0.03 0.02 0.03 0.03 0.02 0.03 0.04 0.06
0.04 0.04 0.04 0.06 0.07 0.07 0.06 0.07 0.08 0.07 0.09 0.12 0.13 0.14 0.13 0.09 0.08 0.07 0.05 0.04 0.05 0.05 0.05 0.04 0.02 0.02 0.01 0.01 0.01 0.01 0.01 0.01 0.01 0.02 0.02 0.02 0.02 0.04
0.03 0.03 0.03 0.05 0.06 0.05 0.06 0.07 0.07 0.08 0.10 0.11 0.09 0.10 0.10 0.09 0.09 0.07 0.05 0.04 0.04 0.05 0.05 0.04 0.02 0.01 0.01 0.01 0.01 0.01 0.01 0.01 0.01 0.01 0.01 0.01 0.01 0.02
0.04 0.05 0.05 0.05 0.05 0.06 0.06 0.06 0.08 0.08 0.10 0.09 0.09 0.08 0.07 0.07 0.09 0.08 0.07 0.05 0.04 0.04 0.05 0.04 0.02 0.01 0.01 0.01 0.01 0.01 0.01 0.01 0.01 0.01 0.00 0.01 0.01 0.01
0.04 0.04 0.05 0.06 0.06 0.08 0.08 0.07 0.08 0.10 0.10 0.07 0.06 0.06 0.07 0.07 0.07 0.07 0.08 0.07 0.05 0.04 0.04 0.04 0.03 0.02 0.01 0.01 0.01 0.01 0.01 0.01 0.01 0.01 0.01 0.01 0.00 0.01
0.03 0.04 0.04 0.05 0.06 0.06 0.06 0.06 0.06 0.07 0.08 0.07 0.06 0.06 0.07 0.09 0.07 0.06 0.05 0.05 0.06 0.06 0.08 0.07 0.04 0.03 0.02 0.02 0.01 0.01 0.01 0.01 0.01 0.01 0.01 0.01 0.01 0.01
0.04 0.04 0.04 0.05 0.04 0.04 0.04 0.03 0.05 0.06 0.07 0.07 0.06 0.06 0.07 0.08 0.08 0.06 0.05 0.04 0.04 0.05 0.06 0.07 0.06 0.04 0.03 0.03 0.02 0.02 0.02 0.02 0.01 0.01 0.01 0.02 0.02 0.02
0.03 0.03 0.04 0.05 0.05 0.05 0.04 0.03 0.04 0.04 0.05 0.06 0.06 0.06 0.07 0.07 0.06 0.05 0.05 0.05 0.04 0.04 0.05 0.06 0.07 0.07 0.05 0.04 0.03 0.03 0.03 0.02 0.02 0.02 0.01 0.01 0.01 0.01
0.03 0.04 0.04 0.03 0.03 0.02 0.04 0.04 0.03 0.03 0.04 0.04 0.05 0.05 0.05 0.05 0.05 0.03 0.03 0.03 0.03 0.03 0.04 0.04 0.05 0.07 0.06 0.05 0.03 0.02 0.02 0.01 0.01 0.01 0.01 0.01 0.01 0.01
0.01 0.02 0.02 0.01 0.01 0.02 0.04 0.04 0.04 0.04 0.04 0.03 0.03 0.03 0.04 0.06 0.04 0.04 0.03 0.03 0.03 0.03 0.03 0.03 0.03 0.05 0.06 0.07 0.07 0.05 0.03 0.02 0.02 0.02 0.01 0.01 0.01 0.01
0.02 0.01 0.01 0.01 0.01 0.03 0.03 0.03 0.04 0.04 0.04 0.05 0.05 0.06 0.05 0.04 0.03 0.03 0.02 0.02 0.02 0.03 0.03 0.03 0.04 0.05 0.06 0.07 0.08 0.08 0.06 0.04 0.03 0.03 0.02 0.02 0.02 0.02
0.02 0.01 0.01 0.01 0.02 0.02 0.01 0.01 0.01 0.02 0.04 0.04 0.04 0.04 0.03 0.03 0.03 0.02 0.01 0.02 0.02 0.03 0.03 0.04 0.05 0.06 0.06 0.06 0.06 0.07 0.08 0.07 0.05 0.04 0.03 0.03 0.03 0.04
0.02 0.01 0.01 0.02 0.01 0.01 0.00 0.01 0.01 0.02 0.02 0.02 0.02 0.02 0.02 0.02 0.02 0.02 0.02 0.02 0.02 0.02 0.03 0.04 0.05 0.06 0.06 0.05 0.04 0.05 0.07 0.09 0.09 0.07 0.05 0.05 0.04 0.03
0.02 0.02 0.02 0.03 0.02 0.01 0.01 0.01 0.01 0.02 0.02 0.02 0.02 0.02 0.02 0.03 0.03 0.02 0.02 0.01 0.01 0.02 0.04 0.05 0.04 0.04 0.05 0.04 0.04 0.04 0.04 0.06 0.09 0.12 0.11 0.09 0.08 0.08
0.05 0.05 0.05 0.06 0.05 0.05 0.04 0.03 0.02 0.01 0.01 0.02 0.02 0.03 0.04 0.04 0.04 0.04 0.04 0.04 0.04 0.05 0.05 0.05 0.05 0.06 0.05 0.04 0.04 0.04 0.05 0.06 0.07 0.09 0.11 0.13 0.11 0.10
0.06 0.06 0.06 0.06 0.06 0.06 0.07 0.05 0.03 0.02 0.02 0.02 0.03 0.04 0.05 0.04 0.03 0.03 0.03 0.04 0.04 0.04 0.05 0.04 0.05 0.05 0.06 0.07 0.07 0.06 0.05 0.04 0.04 0.05 0.05 0.07 0.09 0.09
0.05 0.05 0.05 0.04 0.03 0.03 0.05 0.06 0.06 0.05 0.04 0.04 0.04 0.04 0.04 0.03 0.02 0.02 0.02 0.02 0.03 0.03 0.03 0.04 0.05 0.06 0.07 0.08 0.08 0.06 0.06 0.05 0.06 0.07 0.08 0.09 0.09 0.09
0.06 0.05 0.03 0.02 0.01 0.02 0.02 0.03 0.03 0.03 0.04 0.04 0.04 0.04 0.03 0.02 0.02 0.02 0.02 0.03 0.03 0.04 0.05 0.05 0.04 0.04 0.03 0.03 0.03 0.03 0.03 0.04 0.04 0.05 0.06 0.08 0.10 0.10
0.03 0.03 0.03 0.02 0.01 0.01 0.02 0.02 0.03 0.03 0.03 0.05 0.04 0.03 0.03 0.03 0.03 0.03 0.04 0.05 0.05 0.05 0.05 0.05 0.04 0.04 0.03 0.03 0.02 0.02 0.02 0.02 0.03 0.04 0.03 0.03 0.03 0.04
0.02 0.02 0.02 0.02 0.02 0.02 0.03 0.03 0.03 0.03 0.04 0.06 0.06 0.03 0.03 0.03 0.04 0.04 0.04 0.04 0.04 0.04 0.04 0.03 0.03 0.03 0.04 0.03 0.03 0.02 0.02 0.01 0.01 0.01 0.01 0.01 0.01 0.02
0.02 0.02 0.02 0.02 0.02 0.02 0.02 0.02 0.03 0.02 0.02 0.04 0.05 0.05 0.04 0.04 0.04 0.04 0.05 0.05 0.04 0.04 0.03 0.03 0.03 0.03 0.03 0.02 0.02 0.01 0.01 0.01 0.01 0.01 0.01 0.01 0.01 0.01
0.02 0.01 0.01 0.01 0.01 0.01 0.01 0.01 0.01 0.01 0.01 0.01 0.02 0.02 0.02 0.03 0.04 0.04 0.04 0.04 0.04 0.03 0.03 0.02 0.01 0.01 0.01 0.01 0.01 0.01 0.01 0.01 0.01 0.01 0.01 0.01 0.02 0.01
0.02 0.02 0.01 0.01 0.02 0.02 0.01 0.01 0.01 0.01 0.01 0.01 0.01 0.02 0.02 0.02 0.03 0.03 0.02 0.02 0.02 0.01 0.01 0.01 0.01 0.01 0.01 0.01 0.01 0.01 0.01 0.01 0.01 0.01 0.01 0.01 0.01 0.01
MSLP
1019.14 1019.42 1019.78 1020.21 1020.69 1021.20 1021.71 1022.21 1022.67 1023.09 1023.45 1023.73 1023.93 1024.04 1024.03 1023.92 1023.70 1023.40 1023.05 1022.67 1022.33 1022.05 1021.86 1021.78 1021.78 1021.84 1021.93 1022.00 1022.00 1021.89 1021.64 1021.25 1020.71 1020.07 1019.34 1018.59 1017.86 1017.20
1019.46 1019.68 1019.96 1020.31 1020.72 1021.16 1021.62 1022.09 1022.55 1022.99 1023.41 1023.77 1024.06 1024.26 1024.36 1024.35 1024.23 1024.02 1023.75 1023.45 1023.17 1022.95 1022.79 1022.73 1022.74 1022.79 1022.87 1022.92 1022.89 1022.77 1022.52 1022.14 1021.64 1021.05 1020.38 1019.70 1019.03 1018.42
1019.85 1020.01 1020.23 1020.50 1020.82 1021.18 1021.59 1022.02 1022.47 1022.92 1023.37 1023.79 1024.15 1024.43 1024.61 1024.68 1024.65 1024.52 1024.32 1024.10 1023.87 1023.69 1023.57 1023.52 1023.53 1023.58 1023.64 1023.68 1023.65 1023.54 1023.32 1023.00 1022.58 1022.08 1021.54 1020.98 1020.42 1019.91
1020.29 1020.41 1020.57 1020.77 1021.02 1021.32 1021.66 1022.04 1022.46 1022.91 1023.36 1023.81 1024.21 1024.54 1024.79 1024.93 1024.96 1024.90 1024.77 1024.60 1024.43 1024.29 1024.20 1024.16 1024.17 1024.22 1024.27 1024.30 1024.27 1024.18 1024.01 1023.76 1023.45 1023.08 1022.69 1022.28 1021.87 1021.49
1020.77 1020.86 1020.98 1021.13 1021.32 1021.55 1021.83 1022.16 1022.53 1022.94 1023.38 1023.82 1024.24 1024.60 1024.88 1025.06 1025.15 1025.15 1025.09 1024.98 1024.86 1024.76 1024.69 1024.67 1024.69 1024.73 1024.77 1024.79 1024.77 1024.70 1024.58 1024.41 1024.19 1023.96 1023.71 1023.46 1023.22 1022.99
1021.27 1021.34 1021.43 1021.54 1021.68 1021.85 1022.07 1022.33 1022.65 1023.01 1023.40 1023.81 1024.20 1024.55 1024.85 1025.06 1025.19 1025.25 1025.25 1025.20 1025.14 1025.09 1025.07 1025.07 1025.09 1025.13 1025.16 1025.18 1025.16 1025.10 1025.01 1024.90 1024.78 1024.65 1024.54 1024.43 1024.34 1024.24
1021.75 1021.81 1021.88 1021.96 1022.06 1022.18 1022.33 1022.53 1022.77 1023.06 1023.38 1023.72 1024.07 1024.40 1024.68 1024.91 1025.08 1025.18 1025.24 1025.27 1025.28 1025.29 1025.31 1025.35 1025.40 1025.44 1025.47 1025.47 1025.45 1025.40 1025.33 1025.25 1025.19 1025.14 1025.12 1025.12 1025.14 1025.16
1022.16 1022.22 1022.27 1022.34 1022.40 1022.48 1022.58 1022.71 1022.87 1023.07 1023.30 1023.57 1023.85 1024.13 1024.39 1024.62 1024.81 1024.97 1025.09 1025.18 1025.27 1025.35 1025.44 1025.52 1025.60 1025.65 1025.69 1025.69 1025.66 1025.60 1025.53 1025.47 1025.43 1025.43 1025.46 1025.53 1025.62 1025.72
1022.48 1022.53 1022.59 1022.64 1022.69 1022.74 1022.79 1022.85 1022.93 1023.05 1023.19 1023.37 1023.58 1023.80 1024.02 1024.24 1024.45 1024.64 1024.82 1024.98 1025.14 1025.29 1025.44 1025.57 1025.69 1025.77 1025.81 1025.82 1025.78 1025.72 1025.65 1025.58 1025.54 1025.55 1025.60 1025.69 1025.82 1025.96
1022.67 1022.74 1022.81 1022.86 1022.91 1022.94 1022.96 1022.97 1022.98 1023.02 1023.08 1023.18 1023.31 1023.47 1023.65 1023.85 1024.06 1024.27 1024.48 1024.70 1024.91 1025.13 1025.33 1025.51 1025.66 1025.77 1025.84 1025.85 1025.82 1025.75 1025.67 1025.60 1025.56 1025.55 1025.60 1025.69 1025.81 1025.96
1022.74 1022.84 1022.93 1023.01 1023.07 1023.10 1023.10 1023.08 1023.05 1023.03 1023.03 1023.06 1023.12 1023.22 1023.36 1023.53 1023.72 1023.93 1024.16 1024.40 1024.65 1024.89 1025.13 1025.34 1025.52 1025.66 1025.74 1025.78 1025.76 1025.71 1025.63 1025.56 1025.51 1025.49 1025.52 1025.59 1025.70 1025.83
1022.73 1022.86 1022.99 1023.10 1023.19 1023.23 1023.24 1023.22 1023.17 1023.11 1023.07 1023.05 1023.06 1023.11 1023.20 1023.33 1023.49 1023.68 1023.89 1024.12 1024.37 1024.62 1024.86 1025.08 1025.28 1025.43 1025.54 1025.60 1025.61 1025.58 1025.53 1025.47 1025.42 1025.40 1025.41 1025.46 1025.54 1025.64
1022.66 1022.83 1023.00 1023.16 1023.28 1023.35 1023.38 1023.37 1023.32 1023.25 1023.19 1023.14 1023.11 1023.13 1023.17 1023.26 1023.38 1023.53 1023.70 1023.90 1024.11 1024.33 1024.55 1024.76 1024.96 1025.12 1025.24 1025.33 1025.37 1025.37 1025.35 1025.32 1025.29 1025.27 1025.28 1025.31 1025.37 1025.44
1022.54 1022.76 1022.97 1023.17 1023.33 1023.43 1023.49 1023.49 1023.46 1023.40 1023.33 1023.27 1023.23 1023.22 1023.23 1023.28 1023.35 1023.45 1023.57 1023.71 1023.86 1024.04 1024.22 1024.40 1024.57 1024.73 1024.87 1024.98 1025.05 1025.09 1025.11 1025.11 1025.11 1025.11 1025.12 1025.14 1025.17 1025.22
1022.39 1022.64 1022.89 1023.11 1023.30 1023.42 1023.50 1023.52 1023.50 1023.46 1023.41 1023.35 1023.31 1023.29 1023.28 1023.30 1023.33 1023.38 1023.45 1023.53 1023.62 1023.74 1023.87 1024.01 1024.16 1024.30 1024.44 1024.56 1024.66 1024.74 1024.80 1024.84 1024.86 1024.88 1024.89 1024.91 1024.92 1024.94
1022.18 1022.45 1022.71 1022.95 1023.13 1023.26 1023.34 1023.37 1023.37 1023.34 1023.30 1023.27 1023.24 1023.22 1023.22 1023.22 1023.23 1023.25 1023.27 1023.31 1023.35 1023.42 1023.50 1023.61 1023.72 1023.86 1023.99 1024.12 1024.24 1024.34 1024.42 1024.48 1024.53 1024.55 1024.57 1024.57 1024.56 1024.55
1021.87 1022.15 1022.40 1022.61 1022.78 1022.89 1022.96 1022.98 1022.98 1022.96 1022.94 1022.93 1022.92 1022.93 1022.94 1022.95 1022.97 1022.98 1022.99 1023.00 1023.02 1023.06 1023.11 1023.19 1023.29 1023.40 1023.53 1023.66 1023.78 1023.89 1023.98 1024.05 1024.09 1024.11 1024.11 1024.10 1024.06 1024.02
1021.43 1021.69 1021.91 1022.08 1022.20 1022.28 1022.31 1022.31 1022.30 1022.29 1022.28 1022.29 1022.32 1022.36 1022.41 1022.45 1022.50 1022.53 1022.56 1022.58 1022.61 1022.64 1022.69 1022.76 1022.85 1022.95 1023.07 1023.19 1023.30 1023.40 1023.48 1023.53 1023.55 1023.55 1023.53 1023.48 1023.41 1023.33
1020.83 1021.05 1021.23 1021.34 1021.41 1021.44 1021.43 1021.40 1021.38 1021.37 1021.38 1021.41 1021.47 1021.56 1021.65 1021.74 1021.83 1021.91 1021.98 1022.04 1022.10 1022.15 1022.22 1022.30 1022.39 1022.50 1022.61 1022.71 1022.81 1022.88 1022.93 1022.95 1022.94 1022.90 1022.83 1022.75 1022.64 1022.53
1020.07 1020.25 1020.37 1020.44 1020.45 1020.43 1020.38 1020.34 1020.30 1020.29 1020.31 1020.38 1020.48 1020.60 1020.75 1020.90 1021.04 1021.18 1021.30 1021.41 1021.51 1021.61 1021.70 1021.81 1021.91 1022.02 1022.12 1022.21 1022.28 1022.33 1022.34 1022.32 1022.27 1022.19 1022.09 1021.96 1021.82 1021.67
1019.17 1019.31 1019.39 1019.42 1019.40 1019.34 1019.28 1019.22 1019.18 1019.18 1019.22 1019.31 1019.45 1019.61 1019.80 1020.00 1020.19 1020.38 1020.56 1020.72 1020.86 1021.00 1021.14 1021.26 1021.38 1021.50 1021.59 1021.67 1021.72 1021.74 1021.72 1021.67 1021.58 1021.47 1021.33 1021.18 1021.01 1020.85
1018.17 1018.29 1018.35 1018.36 1018.33 1018.27 1018.21 1018.15 1018.13 1018.15 1018.22 1018.33 1018.50 1018.69 1018.91 1019.14 1019.38 1019.60 1019.81 1020.01 1020.19 1020.37 1020.52 1020.67 1020.80 1020.92 1021.01 1021.08 1021.12 1021.11 1021.08 1021.00 1020.90 1020.77 1020.62 1020.46 1020.29 1020.12
1017.13 1017.24 1017.31 1017.33 1017.32 1017.28 1017.24 1017.22 1017.23 1017.28 1017.38 1017.52 1017.70 1017.92 1018.15 1018.40 1018.65 1018.89 1019.11 1019.33 1019.52 1019.71 1019.88 1020.03 1020.17 1020.29 1020.38 1020.44 1020.47 1020.46 1020.42 1020.35 1020.24 1020.12 1019.98 1019.83 1019.69 1019.54
Thickness
5732 5730 5728 5727 5725 5723 5721 5717 5709 5701 5698 5700 5700 5702 5702 5701 5699 5697 5695 5694 5692 5690 5689 5687 5685 5683 5681 5679 5678 5676 5674 5673 5673 5672 5672 5671 5671 5671
5729 5727 5725 5723 5722 5720 5717 5715 5711 5705 5697 5697 5697 5698 5697 5697 5694 5692 5690 5688 5686 5684 5683 5680 5678 5676 5675 5673 5671 5669 5668 5666 5666 5665 5664 5664 5663 5663
5726 5724 5721 5720 5718 5716 5713 5710 5707 5703 5696 5693 5694 5693 5692 5690 5688 5685 5683 5681 5679 5678 5676 5674 5672 5670 5668 5666 5664 5662 5660 5659 5658 5657 5656 5655 5655 5654
5720 5719 5717 5716 5713 5710 5708 5705 5702 5699 5694 5689 5688 5687 5686 5684 5682 5679 5677 5675 5672 5670 5669 5667 5665 5662 5660 5658 5656 5654 5652 5651 5649 5648 5647 5646 5645 5645
5717 5715 5713 5711 5708 5705 5702 5699 5697 5695 5691 5686 5682 5681 5679 5678 5675 5672 5670 5667 5665 5662 5661 5659 5657 5655 5653 5651 5649 5647 5645 5643 5642 5640 5638 5637 5636 5636
5713 5711 5709 5707 5704 5701 5697 5694 5691 5687 5684 5680 5676 5673 5671 5670 5668 5664 5660 5658 5656 5655 5653 5651 5649 5648 5646 5644 5642 5640 5638 5636 5635 5633 5631 5629 5628 5626
5708 5706 5705 5703 5700 5697 5693 5688 5685 5680 5676 5672 5668 5665 5663 5660 5658 5657 5653 5650 5648 5647 5645 5643 5642 5641 5639 5637 5635 5633 5631 5630 5628 5626 5624 5622 5620 5618
5701 5700 5699 5697 5695 5692 5689 5685 5682 5677 5671 5667 5662 5660 5657 5655 5653 5651 5647 5643 5640 5640 5638 5636 5635 5634 5633 5631 5629 5628 5626 5623 5621 5619 5617 5614 5612 5610
5696 5693 5692 5691 5688 5685 5683 5679 5676 5673 5670 5666 5660 5657 5654 5652 5649 5645 5642 5639 5636 5635 5632 5629 5629 5627 5626 5625 5623 5621 5619 5617 5614 5612 5610 5607 5605 5602
5690 5688 5686 5684 5682 5679 5676 5672 5669 5666 5664 5661 5658 5655 5653 5649 5646 5642 5639 5635 5632 5630 5627 5622 5622 5620 5621 5619 5617 5615 5613 5611 5608 5606 5603 5600 5598 5595
5685 5683 5681 5678 5676 5673 5669 5665 5661 5659 5658 5656 5653 5650 5648 5644 5641 5636 5631 5627 5623 5622 5621 5617 5615 5614 5613 5612 5610 5608 5607 5604 5602 5599 5596 5593 5590 5587
5678 5677 5675 5672 5669 5666 5663 5659 5654 5652 5650 5648 5645 5643 5641 5638 5635 5632 5628 5622 5618 5616 5616 5612 5610 5607 5604 5605 5604 5602 5599 5597 5595 5592 5589 5586 5582 5579
5672 5669 5668 5666 5663 5659 5656 5653 5650 5647 5643 5640 5637 5635 5633 5630 5628 5625 5623 5619 5615 5612 5612 5609 5604 5601 5598 5596 5595 5594 5592 5590 5588 5585 5582 5579 5576 5572
5665 5663 5661 5659 5656 5653 5649 5647 5644 5641 5637 5633 5629 5626 5624 5622 5621 5619 5617 5615 5613 5610 5608 5605 5600 5597 5592 5588 5586 5586 5585 5583 5581 5578 5576 5573 5569 5565
5660 5657 5654 5652 5649 5645 5642 5640 5637 5633 5629 5625 5622 5619 5618 5617 5615 5612 5610 5608 5606 5604 5602 5599 5597 5593 5589 5584 5581 5578 5576 5575 5573 5571 5568 5565 5562 5558
5652 5649 5646 5644 5641 5638 5635 5631 5629 5626 5623 5619 5616 5614 5612 5609 5607 5604 5601 5598 5595 5594 5594 5592 5591 5588 5583 5580 5576 5573 5570 5568 5567 5564 5561 5558 5555 5551
5644 5640 5637 5634 5631 5628 5626 5623 5621 5618 5615 5612 5609 5606 5603 5601 5598 5596 5593 5590 5586 5584 5583 5583 5582 5580 5578 5574 5570 5567 5564 5561 5560 5557 5552 5549 5547 5544
5636 5632 5629 5626 5623 5621 5618 5615 5613 5610 5607 5604 5601 5598 5595 5593 5590 5588 5585 5582 5579 5576 5574 5573 5571 5570 5567 5565 5563 5559 5557 5554 5552 5549 5545 5540 5538 5537
5629 5626 5623 5621 5617 5615 5612 5609 5606 5603 5601 5597 5594 5591 5589 5586 5583 5580 5577 5573 5571 5568 5567 5564 5562 5558 5555 5552 5553 5552 5549 5546 5543 5539 5536 5533 5531 5530
5623 5621 5618 5615 5612 5609 5606 5602 5599 5596 5593 5590 5587 5584 5582 5578 5575 5572 5569 5566 5563 5561 5558 5556 5553 5551 5547 5545 5543 5543 5543 5539 5535 5532 5529 5526 5523 5521
5618 5616 5613 5610 5607 5603 5600 5596 5592 5588 5585 5582 5580 5577 5575 5572 5569 5566 5563 5561 5557 5553 5550 5548 5547 5546 5542 5539 5535 5534 5533 5532 5529 5525 5521 5516 5513 5510
5613 5610 5607 5605 5601 5597 5593 5589 5585 5581 5578 5576 5573 5571 5568 5565 5562 5560 5557 5554 5550 5547 5545 5543 5541 5538 5534 5530 5527 5525 5524 5523 5522 5519 5515 5511 5506 5501
5607 5604 5602 5598 5594 5590 5586 5582 5579 5575 5572 5570 5567 5564 5562 5559 5556 5553 5550 5547 5544 5541 5538 5535 5533 5530 5527 5523 5519 5516 5516 5514 5511 5508 5507 5505 5502 5499